Goshen, IN

1:40 AM EST on November 25, 2017 (GMT -0500)
Goshen Municipal

Weather History for KGSH - July, 2013

Change the Weather History Date:

Wednesday, July 17, 2013

  Actual Average Record
Temperature  
Mean Temperature 82 °F -  
Max Temperature 93 °F 85 °F 100 °F (2012)
Min Temperature 72 °F 62 °F 46 °F (2014)
Cooling Degree Days 16    
Growing Degree Days 32 (Base 50)    
Moisture  
Dew Point 71 °F    
Average Humidity 69    
Maximum Humidity 87    
Minimum Humidity 48    
Precipitation  
Precipitation 0.00 in - - ()
Sea Level Pressure  
Sea Level Pressure 30.26 in    
Wind  
Wind Speed 3 mph (West)    
Max Wind Speed 10 mph    
Max Gust Speed -    
Visibility 10 miles    
Events Thunderstorm    
Averages and records for this station are not official NWS values.
T = Trace of Precipitation, MM = Missing Value Source: NWS Daily Summary

Daily Weather History Graph

Daily Weather History Graph

Search for Another Location

Airport or City:

Trip Planner

Search our weather history database for the weather conditions in past years. The results will help you decide how hot, cold, wet, or windy it might be!

Date:

Astronomy

Jul. 17, 2013 Rise Set
Actual Time 6:24 AM EDT 9:14 PM EDT
Civil Twilight 5:51 AM EDT 9:46 PM EDT
Nautical Twilight 5:10 AM EDT 10:27 PM EDT
Astronomical Twilight 4:22 AM EDT 11:15 PM EDT
Moon 4:01 PM EDT (7/17) 1:32 AM EDT (7/17)
Length of Visible Light 15h 55m
Length of Day
14h 49m
Waxing Gibbous, 67% of the Moon is Illuminated
Jul 17
Waxing Gibbous
Jul 22
Full
Jul 29
Last Quarter
Aug 6
New
Aug 14
First Quarter

Hourly Weather History & Observations

Time (EDT) Temp. Heat Index Dew Point Humidity Pressure Visibility Wind Dir Wind Speed Gust Speed Precip Events Conditions
12:53 AM 75.0 °F - 69.1 °F 82% 30.28 in 10.0 mi SSW 3.5 mph - N/A   Clear
1:53 AM 75.0 °F - 69.1 °F 82% 30.28 in 10.0 mi Calm Calm - N/A   Clear
2:53 AM 73.9 °F - 69.1 °F 85% 30.29 in 10.0 mi Calm Calm - N/A   Clear
3:53 AM 73.0 °F - 68.0 °F 84% 30.29 in 10.0 mi Calm Calm - N/A   Clear
4:53 AM 72.0 °F - 68.0 °F 87% 30.29 in 10.0 mi Calm Calm - N/A   Clear
5:53 AM 72.0 °F - 68.0 °F 87% 30.30 in 10.0 mi Calm Calm - N/A   Clear
6:53 AM 72.0 °F - 68.0 °F 87% 30.32 in 8.0 mi Calm Calm - N/A   Clear
7:53 AM 75.9 °F - 71.1 °F 85% 30.32 in 9.0 mi Calm Calm - N/A   Clear
8:53 AM 81.0 °F 84.9 °F 71.1 °F 72% 30.32 in 10.0 mi WNW 5.8 mph - N/A   Clear
9:53 AM 84.9 °F 90.7 °F 72.0 °F 65% 30.32 in 10.0 mi WNW 6.9 mph - N/A   Clear
10:53 AM 86.0 °F 92.2 °F 72.0 °F 63% 30.32 in 10.0 mi WNW 5.8 mph - N/A   Clear
11:53 AM 88.0 °F 94.7 °F 72.0 °F 59% 30.31 in 10.0 mi WNW 8.1 mph - N/A   Partly Cloudy
12:53 PM 88.0 °F 94.7 °F 72.0 °F 59% 30.30 in 10.0 mi WNW 8.1 mph - N/A   Mostly Cloudy
2:53 PM 91.9 °F 98.4 °F 71.1 °F 50% 30.26 in 10.0 mi SW 4.6 mph - N/A   Partly Cloudy
3:53 PM 91.9 °F 97.4 °F 70.0 °F 48% 30.24 in 10.0 mi West 9.2 mph - N/A   Partly Cloudy
4:53 PM 91.9 °F 98.4 °F 71.1 °F 50% 30.23 in 10.0 mi West 10.4 mph - N/A   Partly Cloudy
5:53 PM 91.9 °F 99.5 °F 72.0 °F 52% 30.21 in 10.0 mi West 8.1 mph - N/A   Clear
6:53 PM 91.0 °F 98.2 °F 72.0 °F 53% 30.20 in 10.0 mi West 10.4 mph - N/A   Clear
7:21 PM 89.6 °F 98.2 °F 73.4 °F 59% 30.21 in 10.0 mi West 6.9 mph - N/A Thunderstorm Clear
7:36 PM 89.6 °F 96.2 °F 71.6 °F 55% 30.22 in 10.0 mi West 9.2 mph - N/A   Clear
7:53 PM 88.0 °F 94.7 °F 72.0 °F 59% 30.19 in 10.0 mi West 5.8 mph - N/A   Clear
8:53 PM 84.9 °F 91.4 °F 73.0 °F 67% 30.19 in 10.0 mi West 4.6 mph - N/A   Clear
9:53 PM 81.0 °F 85.2 °F 72.0 °F 74% 30.19 in 10.0 mi Calm Calm - N/A   Clear
10:53 PM 78.1 °F - 72.0 °F 81% 30.20 in 9.0 mi Calm Calm - N/A   Clear
11:53 PM 77.0 °F - 72.0 °F 84% 30.20 in 7.0 mi Calm Calm - N/A   Clear